Overview Statistics Trail Chart Weather Telemetry Raw packets
 

This is the latest recevied weather packets stored in our database for station/object NO9B. If no packets are shown the sender has not sent any weather packets the latest 10 day(s).

<< 72 73 74 75 76 77 78 >>
Time Temp. Humidity Pressure Rain* Wind** Luminosity Snow
1788175256 22.22° C 95% 1014.5 hPa 0 mm - 0 W/m² -
1788174952 21.67° C 95% 1014.5 hPa 0 mm - 0 W/m² -
1788174648 21.67° C 96% 1014.3 hPa 0 mm - 0 W/m² -
1788174343 21.67° C 96% 1014.3 hPa 0 mm - 0 W/m² -
1788174038 21.67° C 96% 1014.5 hPa 0 mm - 0 W/m² -
1788173737 21.67° C 96% 1014.1 hPa 1.78 mm - 0 W/m² -
1788173432 21.67° C 96% 1014.7 hPa 1.27 mm - 0 W/m² -
1788173128 21.67° C 96% 1014.7 hPa 0.51 mm - 0 W/m² -
1788172824 21.67° C 96% 1014.6 hPa 1.27 mm - 0 W/m² -
1788172519 22.22° C 96% 1014.7 hPa 6.6 mm - 0 W/m² -
1788172216 22.22° C 96% 1015.1 hPa 8.38 mm - 0 W/m² -
1788171915 22.22° C 96% 1015.3 hPa 4.32 mm - 0 W/m² -
1788171610 22.22° C 96% 1015.8 hPa 4.32 mm - 0 W/m² -
1788171305 22.22° C 96% 1015.7 hPa 1.78 mm - 0 W/m² -
1788171001 22.22° C 96% 1015.4 hPa 0.51 mm - 0 W/m² -
1788170697 22.22° C 95% 1015.5 hPa 8.38 mm - 0 W/m² -
1788170392 22.22° C 95% 1015.3 hPa 9.65 mm - 0 W/m² -
1788170091 21.67° C 95% 1015.6 hPa 0.51 mm - 0 W/m² -
1788169786 21.67° C 94% 1015.3 hPa 1.78 mm - 0 W/m² -
1788169482 22.22° C 94% 1014.9 hPa 1.27 mm - 0 W/m² -
1788169178 22.22° C 94% 1014.8 hPa 0 mm - 0 W/m² -
1788168872 22.22° C 94% 1014.7 hPa 0 mm - 0 W/m² -
1788168569 21.67° C 94% 1014.6 hPa 0 mm - 0 W/m² -
1788168265 21.67° C 94% 1014.7 hPa 0 mm - 0 W/m² -
1788167960 21.67° C 94% 1014.6 hPa 0 mm - 0 W/m² -

* Rain latest hour (hover to see other rain measurements)
** Current wind speed in m/s (hover to see current wind gust speed)